Location: Gorze? G�rny
(49.8500°N, 19.5000°E)
Time: 04:58:47
(UTC+00:00)

Cosmos 858 Rocket - Pass Details

Date: 13 May 2021
Orbit: 755 x 775 km, 74.1° (Epoch: 20 June)

Event Time Altitude Azimuth Distance (km) Brightness Sun altitude
Exits shadow 21:08:37 31° 189° (S) 1,321 5.3 -18.7°
Maximum altitude 21:11:09 74° 110° (ESE) 797 4.4 -18.9°
Drops below altitude 10° 21:16:23 10° 27° (NNE) 2,313 7.6 -19.2°
Sets 21:18:46 0° 26° (NNE) 3,247 8.4 -19.3°
